WD6AWP Weather Reports


Display with metric or nautical units.
time (UTC)temp
F
wind
direction
speed
MPH
gust
MPH
rain 1hr
in
rain 24hr
in
rain mn
in
humidity
%
barometer
mb
20260504034503 62 270 7.0 12.0 0.00 0.00 0.00 79 1014.6
20260504033002 62 281 8.0 14.0 0.00 0.00 0.00 78 1014.3
20260504031600 62 279 8.0 13.0 0.00 0.00 0.00 78 1014.1
20260504030121 63 283 7.0 13.0 0.00 0.00 0.00 77 1014.0
20260504024601 63 278 6.0 13.0 0.00 0.00 0.00 77 1013.7
20260504023055 63 268 6.0 13.0 0.00 0.00 0.00 76 1013.8
20260504021554 63 255 8.0 12.0 0.00 0.00 0.00 76 1013.7
20260504020105 63 279 8.0 14.0 0.00 0.00 0.00 75 1013.5
20260504014555 63 265 9.0 16.0 0.00 0.00 0.00 74 1013.5
20260504013053 64 269 9.0 13.0 0.00 0.00 0.00 74 1013.2
20260504011547 65 270 5.0 14.0 0.00 0.00 0.00 75 1013.3
20260504010045 65 276 8.0 16.0 0.00 0.00 0.00 74 1013.0
20260504004544 66 310 6.0 16.0 0.00 0.00 0.00 75 1012.9
20260504003042 66 255 6.0 15.0 0.00 0.00 0.00 76 1013.1
20260504001557 66 250 10.0 16.0 0.00 0.00 0.00 73 1013.0
20260504000041 67 222 7.0 16.0 0.00 0.00 0.00 72 1012.7
20260503234541 67 275 10.0 16.0 0.00 0.00 0.00 73 1012.7
20260503233040 67 277 10.0 18.0 0.00 0.00 0.00 71 1012.6
20260503231537 68 275 7.0 15.0 0.00 0.00 0.00 69 1012.9
20260503230041 68 266 8.0 16.0 0.00 0.00 0.00 68 1013.1
20260503224534 68 284 7.0 14.0 0.00 0.00 0.00 69 1013.2
20260503223032 69 286 7.0 14.0 0.00 0.00 0.00 67 1013.3
20260503221541 69 241 7.0 15.0 0.00 0.00 0.00 66 1013.4
20260503220030 68 271 6.0 12.0 0.00 0.00 0.00 69 1013.6
20260503214531 68 255 7.0 16.0 0.00 0.00 0.00 68 1013.7
20260503213034 68 256 6.0 13.0 0.00 0.00 0.00 67 1013.7
20260503211533 69 260 8.0 12.0 0.00 0.00 0.00 65 1013.8
20260503210024 70 212 3.0 9.0 0.00 0.00 0.00 62 1014.0
20260503204523 70 255 1.0 9.0 0.00 0.00 0.00 60 1013.8
20260503203022 70 245 1.0 9.0 0.00 0.00 0.00 57 1014.0
20260503201520 70 251 1.0 10.0 0.00 0.00 0.00 60 1014.0
20260503200020 70 284 2.0 10.0 0.00 0.00 0.00 61 1014.1
20260503194519 70 263 3.0 11.0 0.00 0.00 0.00 62 1014.2
20260503193015 69 227 2.0 8.0 0.00 0.00 0.00 63 1014.3
20260503191510 68 220 3.0 9.0 0.00 0.00 0.00 66 1014.4
20260503190017 66 300 2.0 8.0 0.00 0.00 0.00 70 1014.5
20260503184507 65 244 2.0 11.0 0.00 0.00 0.00 71 1014.7
20260503183003 65 262 6.0 10.0 0.00 0.00 0.00 71 1014.8
20260503181501 65 244 2.0 8.0 0.00 0.00 0.00 74 1014.8
20260503174559 65 293 4.0 9.0 0.00 0.00 0.00 74 1014.8
20260503173114 65 273 4.0 9.0 0.00 0.00 0.00 74 1014.7
20260503171556 65 225 3.0 9.0 0.00 0.00 0.00 75 1014.5
20260503110112 61 302 2.0 8.0 0.00 0.00 0.00 83 1012.6
20260503100106 61 284 2.0 5.0 0.00 0.00 0.00 83 1012.8
20260503081545 61 268 1.0 7.0 0.00 0.00 0.00 86 1013.3
20260503071533 60 261 1.0 7.0 0.00 0.00 0.00 89 1013.0
20260503054530 60 280 3.0 8.0 0.00 0.00 0.00 90 1012.8
20260503053024 60 281 3.0 11.0 0.00 0.00 0.00 89 1012.7
20260503051521 60 290 5.0 10.0 0.00 0.00 0.00 89 1012.8
20260503050021 60 276 4.0 11.0 0.00 0.00 0.00 89 1012.8
20260503044519 60 280 4.0 10.0 0.00 0.00 0.00 89 1012.7
20260503043018 60 247 7.0 11.0 0.00 0.00 0.00 89 1012.5
20260503041518 61 280 3.0 10.0 0.00 0.00 0.00 89 1012.4
20260503040019 61 231 5.0 13.0 0.00 0.00 0.00 88 1012.0